GLRNC EGBO-EGBO

Flight info

Callsign GLRNC
Flight time 0h 7m
Altitude 1000
Route CIRCUIT
Aircraft P28A/L-VGD/A

Departure

Time 2026-05-04 17:20
Airport Wolverhampton Halfpenny Green Airport (EGBO)

Arrival

Time 2026-05-04 17:27
Airport Wolverhampton Halfpenny Green Airport (EGBO)
Time Latitude Longitude Altitude Speed Heading
2026-05-04 17:15 52.51552 -2.26303 270 ft 0 kts 98°
2026-05-04 17:17 52.51527 -2.26279 268 ft 8 kts 210°
2026-05-04 17:18 52.51527 -2.26412 268 ft 14 kts 275°
2026-05-04 17:18 52.51573 -2.26717 262 ft 12 kts
2026-05-04 17:19 52.51906 -2.26317 285 ft 72 kts 36°
2026-05-04 17:19 52.52783 -2.25498 769 ft 77 kts 351°
2026-05-04 17:20 52.53378 -2.27078 1104 ft 89 kts 285°
2026-05-04 17:20 52.53264 -2.27738 1098 ft 101 kts 232°
2026-05-04 17:20 52.52714 -2.28478 1141 ft 105 kts 216°
2026-05-04 17:21 52.51531 -2.29860 1025 ft 104 kts 209°
2026-05-04 17:21 52.50494 -2.29131 807 ft 84 kts 124°
2026-05-04 17:22 52.50307 -2.28302 763 ft 78 kts 69°
2026-05-04 17:22 52.50709 -2.27806 663 ft 68 kts 32°
2026-05-04 17:23 52.51722 -2.26552 279 ft 52 kts 33°
2026-05-04 17:23 52.52008 -2.26205 307 ft 63 kts 36°
2026-05-04 17:23 52.52791 -2.25371 821 ft 71 kts 12°
2026-05-04 17:24 52.53200 -2.25850 971 ft 86 kts 306°
2026-05-04 17:24 52.52990 -2.28558 1090 ft 103 kts 220°
2026-05-04 17:25 52.52399 -2.29257 1071 ft 105 kts 212°
2026-05-04 17:25 52.51123 -2.30264 1115 ft 102 kts 172°
2026-05-04 17:26 52.50484 -2.28814 1065 ft 62 kts 91°
2026-05-04 17:26 52.51210 -2.27192 450 ft 55 kts 34°
2026-05-04 17:27 52.51810 -2.26446 277 ft 44 kts 35°